Weather History for KCDC - January, 2013

Change the Weather History Date:

Wednesday, January 30, 2013

  Actual Average Record
Temperature  
Mean Temperature 29 °F 30 °F  
Max Temperature 45 °F 43 °F 64 °F (1971)
Min Temperature 12 °F 18 °F -20 °F (1951)
Degree Days  
Heating Degree Days 36 35  
Month to date heating degree days 1399 1079  
Since 1 July heating degree days 3617 3641  
Cooling Degree Days 0 0  
Month to date cooling degree days 0 0  
Year to date cooling degree days 0 0  
Moisture  
Dew Point 19 °F    
Average Humidity 69    
Maximum Humidity 92    
Minimum Humidity 45    
Precipitation  
Precipitation 0.00 in 0.03 in 0.45 in (1993)
Month to date precipitation 0.98 0.83  
Year to date precipitation 0.98 0.83  
Sea Level Pressure  
Sea Level Pressure 30.31 in    
Wind  
Wind Speed 2 mph (ESE)    
Max Wind Speed 8 mph    
Max Gust Speed 9 mph    
Visibility 10 miles    
Events      
T = Trace of Precipitation, MM = Missing Value Source: NWS Daily Summary

Daily Weather History Graph

Daily Weather History Graph

Search for Another Location

Airport or City:

Trip Planner

Search our weather history database for the weather conditions in past years. The results will help you decide how hot, cold, wet, or windy it might be!

Date:

Astronomy

Jan. 30, 2013 Rise Set
Actual Time 7:37 AM MST 5:54 PM MST
Civil Twilight 7:09 AM MST 6:22 PM MST
Nautical Twilight 6:38 AM MST 6:53 PM MST
Astronomical Twilight 6:07 AM MST 7:24 PM MST
Moon 9:51 PM MST 9:12 AM MST
Length of Visible Light 11h 12m
Length of Day
10h 16m
Waning Gibbous, 87% of the Moon is Illuminated
Jan 30
Waning Gibbous
Feb 3
Last Quarter
Feb 10
New
Feb 17
First Quarter
Feb 25
Full

Hourly Weather History & Observations

Time (MST) Temp. Windchill Dew Point Humidity Pressure Visibility Wind Dir Wind Speed Gust Speed Precip Events Conditions
12:53 AM 19.9 °F 12.1 °F 16.0 °F 85% 30.28 in 10.0 mi North 5.8 mph - N/A   Partly Cloudy
1:53 AM 19.9 °F 13.4 °F 16.0 °F 85% 30.27 in 10.0 mi ESE 4.6 mph - N/A   Clear
2:53 AM 17.1 °F - 14.0 °F 88% 30.31 in 10.0 mi Calm Calm - N/A   Clear
3:53 AM 16.0 °F 7.4 °F 12.9 °F 88% 30.31 in 10.0 mi ESE 5.8 mph - N/A   Clear
4:53 AM 12.0 °F - 8.1 °F 84% 30.35 in 10.0 mi Calm Calm - N/A   Clear
5:53 AM 15.1 °F 7.7 °F 10.0 °F 80% 30.34 in 10.0 mi ESE 4.6 mph - N/A   Clear
6:53 AM 15.1 °F - 10.9 °F 84% 30.36 in 10.0 mi Calm Calm - N/A   Scattered Clouds
7:53 AM 15.1 °F 7.7 °F 10.9 °F 84% 30.35 in 10.0 mi SE 4.6 mph - N/A   Clear
8:53 AM 17.1 °F - 12.9 °F 84% 30.35 in 10.0 mi Calm Calm - N/A   Partly Cloudy
9:53 AM 26.1 °F - 19.9 °F 78% 30.33 in 10.0 mi Calm Calm - N/A   Partly Cloudy
10:53 AM 30.9 °F 27.5 °F 21.0 °F 67% 30.32 in 10.0 mi Variable 3.5 mph - N/A   Clear
11:53 AM 34.0 °F - 23.0 °F 64% 30.32 in 10.0 mi Calm Calm - N/A   Clear
12:53 PM 39.0 °F - 19.9 °F 46% 30.28 in 10.0 mi Calm Calm - N/A   Clear
1:53 PM 42.1 °F - 21.9 °F 45% 30.26 in 10.0 mi Calm Calm - N/A   Clear
2:53 PM 43.0 °F - 24.1 °F 47% 30.25 in 10.0 mi Calm Calm - N/A   Clear
3:53 PM 43.0 °F - 24.1 °F 47% 30.25 in 10.0 mi Calm Calm - N/A   Clear
4:53 PM 45.0 °F - 25.0 °F 46% 30.26 in 10.0 mi Calm Calm - N/A   Clear
5:53 PM 34.0 °F 28.8 °F 27.0 °F 75% 30.30 in 10.0 mi NE 5.8 mph - N/A   Clear
6:53 PM 30.9 °F - 26.1 °F 82% 30.33 in 10.0 mi Calm Calm - N/A   Clear
7:53 PM 28.9 °F - 23.0 °F 78% 30.35 in 10.0 mi Calm Calm - N/A   Partly Cloudy
8:53 PM 28.9 °F - 24.1 °F 82% 30.35 in 10.0 mi Calm Calm - N/A   Partly Cloudy
9:53 PM 26.1 °F 21.9 °F 23.0 °F 88% 30.34 in 10.0 mi SW 3.5 mph - N/A   Clear
10:53 PM 26.1 °F 21.9 °F 23.0 °F 88% 30.31 in 10.0 mi SSE 3.5 mph - N/A   Clear
11:53 PM 28.9 °F 21.9 °F 24.1 °F 82% 30.30 in 10.0 mi SSE 6.9 mph - N/A   Clear